Regional Weather Roundup
Issued by NWS

Home | Current Version | Previous Version | Text Only | Print | Product List | Glossary On
Versions: 1 2 3 4 5 6 7 8 9 10 11 12 13 14 15 16 17 18 19 20 21 22 23 24 25 26 27 28 29 30 31 32 33 34 35 36 37 38 39 40 41 42 43 44 45 46 47 48 49 50
431
ASUS43 KLMK 281702
RWRKY
KENTUCKY REGIONAL WEATHER ROUNDUP
NATIONAL WEATHER SERVICE LOUISVILLE KY
100 PM EDT THU JUL 28 2016

NOTE "FAIR" INDICATES FEW OR NO CLOUDS BELOW 12,000 FEET
WITH NO SIGNIFICANT WEATHER AND/OR OBSTRUCTIONS TO VISIBILITY.

KYZ001>023-026-027-061>063-070>075-281800-
WESTERN AND SOUTH CENTRAL KENTUCKY

CITY           SKY/WX    TMP DP  RH WIND       PRES   REMARKS
PADUCAH        CLOUDY    83  74  74 S5        29.92S
HENDERSON      CLOUDY    81  73  78 SW5       29.89F
OWENSBORO      CLOUDY    81  74  79 SW7       29.93S
HOPKINSVILLE   NOT AVBL
BOWLING GREEN  LGT RAIN  75  72  90 N3        29.94S
GLASGOW        NOT AVBL
$$

KYZ024-025-028>034-038-045-046-053-281800-
NORTH CENTRAL KENTUCKY

CITY           SKY/WX    TMP DP  RH WIND       PRES   REMARKS
LOUISVILLE/SDF CLOUDY    79  71  76 W7        29.91F
LOUISVILLE/LOU CLOUDY    77  70  79 SW8       29.93S
FORT KNOX      NOT AVBL
$$

KYZ035>037-039>044-047>052-055>060-089>105-281800-
NORTHEAST KENTUCKY

CITY           SKY/WX    TMP DP  RH WIND       PRES   REMARKS
LEXINGTON      CLOUDY    74  71  91 SW6       29.94F FOG
COVINGTON      CLOUDY    75  72  90 SW5       29.92F
FRANKFORT      CLOUDY    77  71  82 W5        29.92F
$$

KYZ054-064>069-076>088-106>120-281800-
SOUTHEAST KENTUCKY

CITY           SKY/WX    TMP DP  RH WIND       PRES   REMARKS
JACKSON        LGT RAIN  74  72  93 CALM      29.94F FOG
LONDON         LGT RAIN  71  67  87 CALM      29.98S
SOMERSET       DRIZZLE   72  72 100 N3        29.97S
MIDDLESBORO    PTSUNNY   84  72  67 SW9       29.96F
MONTICELLO     CLOUDY   N/A N/A N/A VRB6      29.97S
$$





USA.gov is the U.S. government's official web portal to all federal, state and local government web resources and services.